User: anonymous   Login
Location: Corralito
(10.2667°N, 66.9500°W)
Time: 11:31:22
(UTC+00:00)
Language:

Cosmos 1805 - Orbit

View from above orbital plane
View from above orbital plane
View from above satellite
View from above satellite

Ground track
Ground track

The orbit data is extracted from the following two-line orbital elements,

1 17191U 86097A   23266.52304348  .00007059  00000-0  33109-3 0  9997
2 17191  82.4697 288.9131 0005487  97.6643 262.5215 15.19495249  9605
Epoch (UTC): 23 September 2023 12:33:10
Eccentricity: 0.0005487
inclination: 82.4697°
perigee height: 503 km
apogee height: 511 km
right ascension of ascending node: 288.9131°
argument of perigee: 97.6643°
revolutions per day: 15.19495249
mean anomaly at epoch: 262.5215°
orbit number at epoch: 960

The dashed part of the orbit path shows where the satellite is in the earth's shadow,  

DLR